Location: Newark
(25.6667°N, 138.4167°E)
Time: 10:20:07
(UTC+00:00)

Hubble Space Telescope - Visible Passes

Search period start: 21 October 2019 00:00
Search period end: 31 October 2019 00:00
Orbit: 536 x 540 km, 28.5° (Epoch: 20 October)

Date Brightness Start Highest point End Pass type
(mag) Time Alt. Az. Time Alt. Az. Time Alt. Az.
23 Oct 3.6 20:01:41 10° S 20:03:22 12° SSE 20:05:03 10° SE visible
24 Oct 3.4 19:50:08 10° SSW 19:52:43 16° SSE 19:55:19 10° ESE visible
25 Oct 3.0 19:38:56 10° SSW 19:42:05 21° SSE 19:45:14 10° ESE visible
26 Oct 2.5 19:28:55 15° SSW 19:31:27 27° SSE 19:34:58 10° E visible
27 Oct 2.0 19:19:28 27° SSW 19:20:50 34° SSE 19:24:36 10° E visible
28 Oct 1.5 19:09:54 43° S 19:10:14 44° SSE 19:14:10 10° E visible
29 Oct 1.5 19:00:15 49° SE 19:00:15 49° SE 19:03:40 10° E visible
30 Oct 2.2 18:50:31 37° E 18:50:31 37° E 18:53:09 10° E visible
30 Oct 1.0 20:26:13 10° W 20:30:18 60° N 20:34:23 10° ENE visible
